Simultaneous Nadir Overpasses (SNOs) Predictions

Prediction of SNOs between GOES-16 and METOP-A Satellite Orbit:

Table of predicted SNOs for the next 14.0 days since TLE Epoch: 2/13/2021
Index Date Time (GOES-16) GOES-16 Lat,Lon METOP-A Lat,Lon Distance(km) Time Diff (sec)
1 02/14/2021 01:38:31 0.00, -75.11 -0.91, -79.31 478.01 80
2 02/15/2021 01:15:12 0.01, -75.12 0.20, -74.34 89.71 80
3 02/16/2021 13:36:43 -0.01, -75.16 0.84, -78.93 429.74 80
4 02/17/2021 13:13:24 -0.01, -75.17 -0.27, -73.96 138.30 80
5 02/19/2021 01:35:04 0.01, -75.16 -0.74, -78.59 391.16 80
6 02/20/2021 01:11:44 0.01, -75.17 0.37, -73.62 177.08 80
7 02/21/2021 13:33:16 -0.00, -75.22 0.68, -78.21 341.73 80
8 02/22/2021 13:09:56 -0.01, -75.23 -0.44, -73.24 226.64 80
9 02/24/2021 01:31:36 0.01, -75.22 -0.57, -77.87 302.26 80
10 02/25/2021 01:08:17 0.01, -75.23 0.55, -72.90 266.29 80
11 02/26/2021 13:29:48 -0.01, -75.29 0.50, -77.49 251.80 80
